Location: Carlingford
(46.7848°N, 67.7474°W)
Time: 21:15:30
(UTC+00:00)

N. Korean satellite - Visible Passes

Search period start: 28 November 2022 00:00
Search period end: 08 December 2022 00:00
Orbit: 422 x 454 km, 97.3° (Epoch: 28 November)

Date Brightness Start Highest point End Pass type
(mag) Time Alt. Az. Time Alt. Az. Time Alt. Az.
28 Nov 9.5 08:58:31 10° NE 09:00:45 16° E 09:02:56 10° SE visible
28 Nov 7.0 10:30:14 10° N 10:33:23 34° WNW 10:36:29 10° SW visible
29 Nov 6.5 09:51:22 10° NNE 09:54:48 75° ESE 09:58:11 10° S visible
29 Nov 9.7 21:57:08 10° SW 21:59:15 16° W 22:01:23 10° NW visible
30 Nov 8.8 09:13:07 10° NE 09:15:58 24° E 09:18:45 10° SSE visible
30 Nov 7.6 10:45:38 10° NNW 10:48:24 23° WNW 10:51:08 10° WSW visible
30 Nov 7.7 21:17:04 10° S 21:20:17 45° W 21:23:35 10° NNW visible
01 Dec 6.3 10:06:23 10° N 10:09:49 69° WNW 10:13:11 10° SSW visible
01 Dec 10.1 22:13:41 10° W 22:14:23 10° W 22:15:04 10° WNW visible
02 Dec 8.0 09:27:48 10° NNE 09:30:59 35° E 09:34:07 10° SSE visible
02 Dec 8.0 11:01:03 10° NNW 11:03:13 16° WNW 11:05:23 10° WSW visible
02 Dec 8.7 21:32:16 10° SSW 21:35:16 29° W 21:38:18 10° NNW visible
03 Dec 9.8 08:50:20 10° ENE 08:51:54 13° E 08:53:27 10° ESE visible
03 Dec 6.7 10:21:23 10° N 10:24:39 43° WNW 10:27:52 10° SW visible
04 Dec 7.0 09:42:28 10° NNE 09:45:50 55° E 09:49:08 10° S visible
04 Dec 8.4 11:16:45 10° NW 11:17:52 11° WNW 11:18:58 10° W visible
04 Dec 9.4 21:47:33 10° SW 21:50:06 20° W 21:52:42 10° NW visible
05 Dec 9.2 09:04:18 10° NE 09:06:45 18° E 09:09:10 10° SE visible
05 Dec 7.2 10:36:19 10° N 10:39:18 29° WNW 10:42:15 10° SW visible
06 Dec 6.3 09:57:04 10° NNE 10:00:29 88° ESE 10:03:50 10° SSW visible
06 Dec 9.7 22:03:02 10° WSW 22:04:50 14° W 22:06:41 10° WNW visible
07 Dec 8.6 09:18:28 10° NE 09:21:25 27° E 09:24:19 10° SSE visible
07 Dec 7.7 10:51:13 10° NNW 10:53:46 20° WNW 10:56:18 10° WSW visible
07 Dec 8.1 21:22:24 10° S 21:25:36 39° W 21:28:51 10° NNW visible
